Regional Weather Roundup
Issued by NWS Charleston, WV

Home | Current Version | Previous Version | Graphics & Text | Print | Product List | Glossary On
Versions: 1 2 3 4 5 6 7 8 9 10 11 12 13 14 15 16 17 18 19 20 21 22 23 24 25 26 27 28
000
ASUS41 KRLX 271210
RWRRLX
West Virginia Regional Weather Roundup
National Weather Service Charleston WV
800 AM EDT SAT MAY 27 2017

Note: "fair" indicates few or no clouds below 12,000 feet with no
significant weather and/or obstructions to visibility.

WVZ003-271300-
Northern Panhandle of West Virginia

CITY           SKY/WX    TMP DP  RH WIND       PRES   REMARKS
WHEELING       RAIN      59  57  93 CALM      29.89R VSB 3/4
$$

WVZ009-271300-
Northwest West Virginia

CITY           SKY/WX    TMP DP  RH WIND       PRES   REMARKS
PARKERSBURG    CLOUDY    63  59  87 CALM      29.89R
$$

WVZ006-271300-
Western West Virginia

CITY           SKY/WX    TMP DP  RH WIND       PRES   REMARKS
HUNTINGTON     CLOUDY    68  60  75 S6        29.88R
$$

WVZ015-271300-
West Central West Virginia

CITY           SKY/WX    TMP DP  RH WIND       PRES   REMARKS
CHARLESTON     CLOUDY    65  59  81 W3        29.89R
$$

WVZ022-031-271300-
North Central West Virginia

CITY           SKY/WX    TMP DP  RH WIND       PRES   REMARKS
CLARKSBURG     CLOUDY    61  57  87 N5        29.89S
MORGANTOWN     HVY RAIN  59  57  93 CALM      29.92S VSB 1
$$

WVZ025-035-042-045-271300-
Southern West Virginia

CITY           SKY/WX    TMP DP  RH WIND       PRES   REMARKS
BECKLEY        PTSUNNY   66  57  72 SW8       29.98S
LOGAN          CLOUDY    66  59  77 CALM      29.94R
BLUEFIELD      SUNNY     64  57  78 W9        30.01S
LEWISBURG      MOSUNNY   56  54  91 CALM      29.98F
$$

WVZ047-271300-
Northern Mountains of West Virginia

CITY           SKY/WX    TMP DP  RH WIND       PRES   REMARKS
ELKINS         PTSUNNY   59  55  87 CALM      29.94F
$$

WVZ052-271300-
Eastern Panhandle of West Virginia

CITY           SKY/WX    TMP DP  RH WIND       PRES   REMARKS
MARTINSBURG    PTSUNNY   57  56  96 E3        29.92S
PETERSBURG     PTSUNNY   60  58  94 CALM      29.93F
$$




USA.gov is the U.S. government's official web portal to all federal, state and local government web resources and services.